Cosmos 2285 Rocket - Orbit

View from above orbital plane
View from above orbital plane
View from above satellite
View from above satellite

Ground track
Ground track

The orbit data is extracted from the following two-line orbital elements,

1 23190U 94045B   13137.16210152 -.00000008  00000-0  15347-4 0  4336
2 23190 074.0309 054.9390 0019479 342.5141 017.5306 13.73941241942305
Epoch (UTC): 17 May 2013 03:53:25
Eccentricity: 0.0019479
inclination: 74.0309°
perigee height: 971 km
apogee height: 1000 km
right ascension of ascending node: 54.9390°
argument of perigee: 342.5141°
revolutions per day: 13.73941241
mean anomaly at epoch: 17.5306°
orbit number at epoch: 94230

The dashed part of the orbit path shows where the satellite is in the earth's shadow,  

Developed and maintained by Chris Peat, Heavens-Above GmbH. Please read the updated FAQ before sending e-mail. Imprint. DLR